Regional Weather Roundup
Issued by NWS

Home | Current Version | Previous Version | Graphics & Text | Print | Product List | Glossary On
Versions: 1 2 3 4 5 6 7 8 9 10 11 12 13 14 15 16 17 18 19 20 21 22 23 24 25 26 27 28 29 30 31 32 33 34 35 36 37 38 39 40 41 42 43 44 45 46 47 48 49 50
000
ASUS43 KLOT 232008
RWRIL

ILLINOIS REGIONAL WEATHER ROUNDUP
NATIONAL WEATHER SERVICE CHICAGO/ROMEOVILLE IL
300 PM CDT SUN APR 23 2017

NOTE: "FAIR" INDICATES FEW OR NO CLOUDS BELOW 12,000 FEET WITH NO
SIGNIFICANT WEATHER AND/OR OBSTRUCTIONS TO VISIBILITY.

* THESE STATIONS ARE NOT UNDER NWS QUALITY CONTROL. THEY ALSO MAY NOT
  REPORT WEATHER SUCH AS PRECIPITATION OR FOG.

ILZ001-002-007-009-015-016-024-232100-
NORTHWEST ILLINOIS

CITY           SKY/WX    TMP DP  RH WIND       PRES   REMARKS
MOLINE         SUNNY     71  31  22 CALM      30.06F
STERLING*      SUNNY     69  32  25 CALM      30.05F
SAVANNA*       SUNNY     69  33  26 W5        30.06F
$$

ILZ003-004-008-010-011-017-018-232100-
NORTH CENTRAL ILLINOIS

CITY           SKY/WX    TMP DP  RH WIND       PRES   REMARKS
ROCKFORD       MOSUNNY   72  36  26 VRB6      30.06F
FREEPORT*      SUNNY     68  35  29 CALM      30.07F
ROCHELLE*      SUNNY     69  33  27 N5        30.06F
DE KALB*       SUNNY     69  33  26 CALM      30.06F
PERU*          SUNNY     69  27  20 N8        30.05F
$$

ILZ005-006-012>014-019>023-232100-
NORTHEAST ILLINOIS

CITY           SKY/WX    TMP DP  RH WIND       PRES   REMARKS
CHICAGO-OHARE  SUNNY     72  27  18 NE8       30.04F
CHICAGO-MIDWAY SUNNY     69  31  24 E8G16     30.06F
AURORA         SUNNY     71  33  24 N9        30.05F
LANSING*       SUNNY     66  33  29 NE9G16    30.06F
JOLIET*        SUNNY     71  34  25 N7        30.05F
WAUKEGAN       SUNNY     66  35  31 SE9       30.04F
DUPAGE AIRPORT SUNNY     71  31  22 NW6       30.04F
KANKAKEE*      SUNNY     71  22  16 NE8       30.05F
WHEELING       SUNNY     69  33  26 S6        30.06F
MORRIS*        SUNNY     71  27  19 NE3       30.04F
ROMEOVILLE*    SUNNY     69  35  29 E3        30.05F
NORTHERLY ISL    N/A     57  43  59 SE5         N/A
$$

LMZ740>746-232100-
SOUTHERN LAKE MICHIGAN

STATION/POSITION SKY/WX   TEMP    WIND        PRES    VSBY  WAVE
                          AIR SEA DIR/SP/G                  HT/PER
                          (F)     (DEG/KT/KT) (MB)    (MI)  (FT/S)
HARRISON CRIB              59     120/  7/  7   N/A
BURNHAM HARBOR             58     120/  2/  5   N/A
CALUMET HARBOR             57      80/  7/  8 1017.7F
BURNS HARBOR               56      60/  3/  4 1019.0F
MICHIGAN CITY              54     360/  2/  2   N/A
ST. JOSEPH                 53 53  290/  2/  2 1019.0          0
$$

ILZ025>027-034>036-040-047-049-050-058-095>099-232100-
WEST-CENTRAL ILLINOIS

CITY           SKY/WX    TMP DP  RH WIND       PRES   REMARKS
QUINCY         SUNNY     70  28  21 NE7       30.06F
GALESBURG*     SUNNY     70  33  25 N6        30.06F
MACOMB*        SUNNY     70  28  20 NE5       30.08F
JACKSONVILLE*  SUNNY     70  29  22 N5        30.05F
PITTSFIELD*    SUNNY     70  27  20 NE10G17   30.08S
$$

ILZ028>032-037-038-041>044-048-051>054-059>061-232100-
CENTRAL ILLINOIS

CITY           SKY/WX    TMP DP  RH WIND       PRES   REMARKS
PONTIAC        SUNNY     71  25  17 NE8       30.05F
BLOOMINGTON    SUNNY     71  27  19 NE13      30.05F
DECATUR        SUNNY     70  36  28 NE18      30.03F
PEORIA         SUNNY     70  28  21 NE8       30.06F
LACON*         SUNNY     69  33  25 NW9       30.05F
LINCOLN*       SUNNY     72  32  23 NE12      30.04F
SPRINGFIELD    SUNNY     72  32  23 E10G18    30.04F
TAYLORVILLE    SUNNY     71  28  19 NE13G20   30.04S
$$

ILZ033-039-045-046-055>057-062-063-232100-
EAST-CENTRAL ILLINOIS

CITY           SKY/WX    TMP DP  RH WIND       PRES   REMARKS
CHAMPAIGN      SUNNY     72  28  19 NE13      30.04S
RANTOUL*       SUNNY     71  26  18 NE10G18   30.04F
MATTOON        SUNNY     70  29  21 NE17G25   30.01F
PARIS*         SUNNY     72  27  18 NE15G26   30.03S
$$

ILZ079-100>102-232100-
SOUTHWEST ILLINOIS

CITY           SKY/WX    TMP DP  RH WIND       PRES   REMARKS
ALTON          SUNNY     70  30  23 N9G17     30.04F
BELLEVILLE     SUNNY     72  33  24 N17       30.00F
CAHOKIA*       SUNNY     72  31  22 N15       30.02F
SPARTA*        SUNNY     67  39  36 N15G21    30.01F
$$

ILZ064>066-069>071-074>076-080>082-084>086-088>090-092>094-232100-
SOUTH-CENTRAL ILLINOIS

CITY           SKY/WX    TMP DP  RH WIND       PRES   REMARKS
CARBONDALE     SUNNY     66  41  40 N18G25    29.97F
CAIRO*         SUNNY     66  44  44 N17G25    29.93S
EFFINGHAM*     SUNNY     71  33  24 N9G18     30.02F
MARION         SUNNY     68  39  34 NE14G24   29.97F
MT. VERNON     SUNNY     69  35  28 NE12G25   29.97F
CENTRALIA*     SUNNY     70  36  29 NE13G18   29.99F
SALEM*         SUNNY     71  32  23 NE12G17   29.99F
METROPOLIS*    SUNNY     67  42  39 NE13G24   29.93S
$$

ILZ067-068-072-073-078-083-087-091-232100-
SOUTHEAST ILLINOIS

CITY           SKY/WX    TMP DP  RH WIND       PRES   REMARKS
LAWRENCEVILLE  SUNNY     71  34  25 N20       29.96F
FLORA*         SUNNY     70  33  25 N17G23    29.98F
FAIRFIELD*     SUNNY     69  35  29 N12G20    29.95F
HARRISBURG*    SUNNY     67  43  41 N16G22    29.96F
ROBINSON*      SUNNY     71  31  22 N16G24    29.98F
CARMI*         SUNNY     68  39  34 N17G26    29.94F
$$

ABBREVIATIONS USED IN REMARKS
   TC - TEMPERATURE IN CELSIUS
  WCI - WIND CHILL INDEX
   HX - HEAT INDEX
  VSB - VISIBILITY
$$





USA.gov is the U.S. government's official web portal to all federal, state and local government web resources and services.